Wind_Speed
15 15 15 15 15 15 15 15 14 14 14 15 15 15 15 15 15 14 14 14 14 14 14 15 16 16 17 17 17 18 18 18 18 18 18 18 19 19 20 20 21 21 21 22 22 22 21 22 21 18 15 15 15 15 15 15 16 17 18 18 18 17 17 17 17 18 18 18 18
15 15 15 15 15 15 15 15 14 14 14 14 14 15 15 15 15 14 14 14 14 14 15 15 16 16 16 17 17 17 17 18 18 18 19 19 20 20 21 21 21 21 22 22 22 21 22 22 21 18 16 15 16 16 15 15 16 18 18 18 17 17 17 17 17 18 18 18 18
15 15 15 15 15 15 15 14 14 14 14 14 14 14 14 15 14 14 14 14 14 15 15 15 16 16 17 17 17 17 17 18 18 19 19 20 20 21 21 22 22 22 22 22 22 22 22 22 20 17 16 16 16 16 16 16 17 18 18 18 17 16 16 16 17 18 18 17 17
14 14 15 15 15 15 14 14 13 13 14 14 14 14 14 14 14 14 14 14 15 15 15 15 16 16 17 17 17 17 17 18 18 19 20 20 21 22 22 22 23 23 23 22 23 23 23 22 19 17 16 16 16 16 16 17 18 18 18 17 17 16 16 16 16 17 17 17 17
14 14 14 14 14 14 14 13 13 13 14 14 14 14 15 15 15 14 15 15 15 15 15 15 16 16 17 17 17 18 18 19 19 20 20 21 22 22 23 23 23 23 23 23 23 23 23 22 19 16 16 16 16 15 16 18 19 18 18 17 17 16 16 16 16 16 17 17 18
14 14 14 14 14 14 13 13 13 13 14 14 14 15 15 15 15 15 15 15 15 15 16 16 16 17 17 18 18 19 19 20 20 21 21 21 22 23 23 23 23 23 23 23 23 23 23 21 18 16 16 16 16 16 17 18 19 19 18 18 17 16 16 16 17 17 17 18 19
13 13 13 13 13 13 14 14 14 14 14 14 15 15 15 15 15 15 15 15 16 16 16 16 16 17 17 18 19 19 20 20 21 21 21 22 22 23 23 23 23 23 23 23 23 22 22 21 18 17 16 16 16 17 18 19 19 19 19 18 17 16 16 17 18 18 18 19 21
12 13 13 13 13 13 14 14 14 14 15 15 15 15 15 15 15 15 15 16 16 16 16 16 16 17 17 18 19 19 20 21 21 21 22 22 22 23 23 23 23 23 23 23 22 22 21 20 17 16 17 17 18 18 20 21 21 20 19 19 18 17 17 18 18 19 19 20 21
12 13 13 13 14 14 14 14 14 14 15 15 15 15 15 15 15 15 16 16 16 16 16 16 17 17 17 18 19 19 20 21 21 21 21 22 22 23 23 23 23 23 23 23 22 22 21 19 17 17 18 18 19 19 20 21 21 21 20 19 19 19 18 18 18 19 20 20 21
12 12 13 13 14 14 14 14 14 14 14 14 14 14 15 15 15 15 15 15 15 16 16 17 17 17 18 18 19 20 20 20 20 21 21 22 22 22 23 23 23 23 23 23 23 22 21 19 19 19 20 20 20 21 21 21 21 21 20 19 20 20 20 19 19 19 20 20 21
12 12 13 13 13 13 14 14 14 14 14 14 14 14 14 14 15 15 15 15 16 16 16 17 17 18 18 19 19 20 20 20 20 21 21 22 22 22 22 22 23 23 23 23 23 22 21 20 20 21 22 21 21 21 21 21 21 21 21 20 20 20 21 21 20 20 20 21 22
12 12 12 13 13 13 13 13 14 14 14 14 14 14 14 14 15 15 15 15 16 17 17 17 17 18 18 19 19 20 20 20 21 21 21 22 22 22 22 23 23 23 23 23 23 22 21 21 21 22 23 23 21 20 21 22 21 21 21 21 21 21 21 22 21 21 21 21 22
11 12 12 13 13 13 13 14 14 14 14 14 14 14 14 14 15 15 15 16 17 17 17 17 18 18 18 19 20 20 21 21 21 22 22 22 22 22 22 22 23 23 23 22 23 22 22 22 22 23 23 24 22 21 21 21 21 21 21 22 22 22 21 22 22 22 22 22 23
10 11 12 13 13 13 13 14 14 14 14 14 14 14 14 15 15 15 16 16 17 17 18 18 18 19 19 19 20 20 21 22 22 22 22 22 22 22 23 22 23 23 23 23 23 23 23 23 23 23 23 23 23 23 22 21 20 20 21 22 22 22 23 23 23 23 23 23 24
10 11 12 12 13 13 13 14 14 14 14 14 14 14 14 15 15 15 16 16 17 17 18 19 19 19 19 20 20 21 22 22 23 23 23 23 23 23 23 23 23 24 24 24 23 23 22 23 23 23 23 23 24 23 22 21 21 20 21 22 22 23 23 23 24 24 24 24 25
11 11 12 12 13 13 13 13 14 14 14 14 14 14 14 15 15 15 16 16 17 18 18 19 20 20 20 20 21 22 22 22 23 23 23 23 23 23 24 24 24 24 24 24 24 24 23 23 23 23 24 24 24 23 22 22 21 21 22 22 23 23 23 24 24 24 24 24 24
11 11 12 12 12 13 13 13 13 13 13 13 14 14 14 15 15 15 16 16 17 18 18 19 20 21 21 21 22 22 22 22 22 22 23 23 23 24 24 24 24 24 25 25 24 24 24 24 24 24 23 23 23 23 22 22 22 22 22 22 23 23 23 23 23 24 24 24 24
11 11 12 12 12 13 13 13 13 13 13 13 13 14 14 15 15 15 16 16 17 18 19 19 20 21 21 22 22 22 22 22 22 22 23 23 24 24 24 24 25 25 25 25 24 24 25 25 25 25 24 23 23 22 22 22 22 22 23 23 24 24 24 24 24 24 24 25 25
11 11 12 12 12 12 13 13 12 13 13 13 13 14 14 15 15 16 16 17 17 18 19 20 21 21 22 22 23 23 23 22 23 23 23 24 24 24 25 25 25 25 25 25 25 25 25 26 25 25 25 24 23 23 23 23 23 23 24 24 24 24 24 24 24 24 24 24 24
11 11 11 12 12 12 12 12 12 12 13 13 13 14 14 15 15 16 16 17 18 18 19 20 21 22 22 23 23 23 23 23 23 23 24 24 24 25 25 26 26 26 25 25 25 26 26 26 26 25 25 24 24 24 24 24 24 25 25 24 24 24 25 25 25 25 24 24 24
10 11 11 12 12 12 12 12 12 12 13 13 14 14 15 15 15 16 17 17 18 19 20 20 21 22 23 23 23 24 23 23 23 24 24 24 24 25 25 26 26 26 25 26 26 26 26 26 25 25 25 24 24 24 24 25 25 25 26 25 25 25 25 25 25 25 25 24 24
10 10 11 11 11 11 11 12 12 12 13 13 14 14 15 15 16 16 17 18 19 19 20 21 22 22 23 23 23 24 24 24 24 24 25 25 25 25 25 26 26 26 26 26 26 26 26 26 25 24 24 24 25 25 25 25 25 26 26 26 26 26 26 26 26 25 25 24 24
9 10 10 10 11 11 11 12 12 13 13 14 14 15 15 16 16 17 18 18 19 20 21 22 22 23 23 23 24 24 25 25 25 26 26 26 26 27 26 26 25 25 25 25 25 25 25 25 25 25 24 24 25 26 26 26 26 26 27 27 27 27 27 26 26 25 25 25 25
9 9 10 10 10 11 11 12 13 13 14 14 15 15 16 16 17 18 19 19 20 21 22 22 23 23 24 24 24 24 25 26 26 27 27 27 27 27 27 26 24 24 24 25 25 25 25 25 25 25 25 25 25 26 26 26 26 27 27 27 27 27 27 26 26 26 26 26 26
8 9 9 10 10 11 12 13 13 14 15 15 15 16 16 17 18 19 20 21 21 22 23 23 24 24 24 24 24 25 26 26 26 27 28 28 28 27 27 25 24 24 25 25 25 25 25 25 25 25 26 26 26 27 27 27 26 26 27 27 27 27 27 27 27 26 26 27 26
8 9 9 10 11 12 13 14 14 15 15 16 16 16 17 18 19 20 21 22 22 23 23 24 24 24 23 23 25 26 26 26 26 27 28 28 28 28 27 25 24 24 25 26 26 27 27 27 26 26 26 27 27 27 27 27 27 26 26 26 26 26 26 27 27 27 27 27 27
9 9 10 11 12 13 14 14 15 15 16 16 17 17 18 19 20 21 21 22 23 24 24 24 24 24 23 24 25 26 27 27 27 27 27 27 28 28 27 26 25 25 26 27 27 27 27 27 27 27 27 27 27 27 27 27 27 26 26 26 26 25 26 26 27 28 28 28 28
9 10 11 12 13 14 14 15 15 16 16 17 17 18 19 19 20 21 22 23 24 24 24 24 24 24 24 24 25 26 27 27 28 28 27 27 27 27 27 26 26 26 27 28 28 27 27 27 28 28 28 28 28 27 27 27 26 26 26 25 25 25 26 26 27 28 29 29 30
10 11 12 13 14 15 15 16 16 16 17 17 18 19 19 20 21 22 23 24 24 24 24 24 24 24 24 25 25 26 27 27 27 27 28 28 28 27 27 27 27 28 29 28 28 27 27 28 28 29 29 29 28 27 26 26 26 25 25 25 25 25 26 27 28 28 29 29 30
11 12 13 14 15 15 16 16 16 17 17 18 19 19 20 21 22 22 23 24 24 24 24 24 24 24 25 25 26 26 27 27 27 27 27 28 27 27 27 27 28 29 29 28 27 27 28 29 29 29 30 30 29 28 26 26 25 25 25 25 26 26 27 28 28 29 29 29 30
12 13 14 15 15 16 16 16 17 17 18 19 19 20 21 21 22 23 23 23 24 24 25 25 25 26 26 26 26 26 27 27 27 27 27 27 26 27 28 29 29 28 28 27 27 27 28 29 30 30 30 30 29 28 27 26 26 25 25 26 27 27 28 28 28 28 29 29 30
13 14 15 15 16 16 16 17 17 18 18 19 20 20 21 22 22 23 23 24 24 25 25 25 26 26 27 27 26 26 27 27 26 26 26 26 27 28 29 28 27 27 27 27 27 28 29 29 30 30 30 30 29 28 27 26 26 26 26 26 27 27 27 27 28 28 29 29 30
14 15 15 16 16 16 17 17 17 18 19 20 20 21 22 22 23 24 24 24 24 25 25 25 25 25 25 25 26 26 26 25 25 26 27 27 28 28 28 27 26 26 27 28 28 28 29 29 30 30 30 30 29 28 27 26 26 26 26 26 27 27 27 27 27 28 29 29 30
15 15 16 16 16 16 17 17 18 19 19 20 21 21 22 23 24 24 24 24 24 24 24 24 24 24 24 24 25 25 25 25 25 25 27 27 28 27 27 25 25 27 28 29 29 29 29 29 29 30 30 30 29 27 26 26 26 26 26 27 27 27 28 28 28 29 29 29 30
15 16 16 16 16 16 17 18 18 19 20 21 21 22 23 23 24 24 24 24 24 24 24 25 25 25 25 24 24 24 24 25 26 26 26 26 27 27 27 26 27 28 29 29 29 29 29 29 29 30 30 29 27 26 26 26 26 26 26 27 27 28 28 28 29 29 29 29 29
15 15 15 16 16 16 17 18 18 19 20 21 22 23 23 24 24 24 24 24 24 24 25 25 25 25 25 25 24 24 24 25 26 26 26 25 25 26 27 27 28 29 30 29 29 28 29 29 29 29 29 28 27 26 26 26 25 25 26 27 27 28 28 29 29 29 28 28 27
14 14 15 15 16 16 17 18 19 20 20 21 22 23 23 24 24 24 24 24 24 24 24 25 25 25 25 25 25 24 24 25 25 26 26 25 25 25 26 27 28 28 29 29 29 29 28 29 29 29 28 27 27 26 26 25 25 25 26 27 27 28 28 28 28 28 27 26 24
14 14 14 15 15 16 17 18 19 19 20 21 22 23 23 24 24 24 24 23 23 24 24 25 25 25 25 26 25 25 25 25 25 25 25 25 25 25 26 27 27 28 29 29 29 29 28 28 28 28 28 27 27 26 25 25 25 25 26 27 27 28 28 28 28 27 25 23 22
13 13 13 14 15 16 17 18 19 19 20 21 22 23 23 24 24 24 23 23 23 24 24 24 24 25 25 26 25 25 25 25 25 25 25 25 25 25 25 26 27 28 29 29 29 28 28 27 27 27 27 27 26 25 25 25 25 26 26 27 27 28 28 28 27 25 22 20 21
13 13 13 14 15 16 17 18 19 19 20 21 22 22 23 23 23 23 23 23 23 24 24 24 24 25 25 25 25 25 26 26 26 26 25 25 25 25 25 25 27 28 29 29 28 28 27 26 27 27 27 26 26 25 24 25 25 26 26 27 27 28 28 28 25 22 20 20 22
13 13 13 14 15 16 17 18 19 20 20 21 22 22 23 23 23 24 24 24 24 24 23 23 24 25 25 25 25 25 26 27 27 26 26 26 26 25 25 25 27 28 28 28 27 26 26 26 26 26 27 26 26 25 25 24 25 25 26 27 28 28 28 26 22 20 20 22 24
Wind_Direction
65 64 64 63 64 64 64 63 59 54 50 47 44 41 37 34 33 30 25 22 18 15 12 11 9 9 9 9 10 11 12 12 13 13 13 13 11 9 8 7 6 5 3 1 0 358 356 356 355 352 348 344 342 340 340 340 338 336 335 333 330 328 326 325 323 323 322 321 320
66 63 62 62 61 61 60 59 55 50 46 42 39 36 33 31 30 28 24 22 18 15 13 11 10 10 10 12 13 13 13 13 13 13 13 12 11 10 8 6 5 4 3 1 359 357 355 355 354 351 346 343 342 340 339 338 338 336 334 333 331 329 327 325 324 324 323 322 321
65 62 60 58 57 56 56 55 51 47 43 39 34 32 30 29 28 26 24 21 18 16 15 12 11 11 12 12 13 14 14 14 13 12 12 11 10 9 7 5 4 3 2 360 358 356 355 354 353 349 345 342 340 339 337 337 337 335 333 332 330 329 327 325 324 324 323 322 322
64 61 58 56 54 52 52 50 46 43 39 35 31 28 28 27 26 24 22 20 18 17 16 14 12 11 12 12 13 14 14 14 13 12 11 10 8 7 6 4 3 1 360 358 357 355 354 353 351 347 343 340 338 337 335 334 334 333 332 330 328 327 325 323 323 323 322 321 320
62 59 56 53 51 49 47 44 42 39 35 31 28 27 26 25 25 23 21 19 18 17 16 14 13 12 11 11 11 12 12 13 12 11 10 8 7 5 4 3 2 360 358 356 355 353 353 352 349 345 341 338 336 334 332 332 332 331 330 329 327 325 323 322 321 321 320 318 318
62 58 54 50 47 45 43 40 37 35 32 28 27 27 26 25 23 21 20 19 17 15 14 14 13 12 10 10 10 11 11 11 11 10 8 7 5 3 1 1 359 358 356 355 353 352 351 349 346 342 339 336 333 331 330 331 330 329 327 327 325 323 321 320 320 319 318 317 317
61 57 53 48 44 41 39 36 33 31 29 27 27 26 25 23 21 20 18 17 16 14 14 13 13 11 10 10 10 10 9 9 9 8 7 5 3 2 360 358 357 356 355 353 351 349 348 347 344 340 337 335 332 330 330 330 329 327 325 323 322 321 320 319 320 318 317 316 316
58 54 49 45 41 38 35 33 30 28 27 26 26 25 23 20 18 16 15 15 14 14 13 12 12 11 10 9 9 8 8 7 7 6 5 3 2 360 358 356 355 353 352 351 349 347 346 345 341 337 335 333 331 330 329 329 328 326 323 321 320 319 319 319 317 317 316 315 315
54 50 45 41 37 34 32 30 27 26 26 26 25 23 21 18 16 14 13 13 13 12 11 11 10 9 9 9 8 8 7 5 4 3 3 2 360 358 356 355 353 352 350 349 347 346 344 342 339 336 334 331 329 327 327 329 328 326 323 322 321 319 318 317 317 316 316 315 315
50 46 42 39 35 32 29 27 25 24 24 25 23 21 19 16 14 13 12 11 10 10 11 10 9 8 8 8 7 7 6 5 3 1 0 360 358 356 354 353 351 350 348 347 346 345 343 340 337 334 333 331 329 327 327 328 327 325 323 322 321 319 318 318 318 317 317 316 315
45 42 39 36 33 29 26 25 24 22 21 22 20 18 16 14 12 11 10 8 8 9 9 8 8 8 7 6 6 5 5 4 2 0 358 357 356 354 353 351 350 348 347 346 345 343 341 339 335 333 332 332 330 328 328 328 326 324 322 320 319 318 318 319 319 319 318 317 315
41 38 35 32 29 26 24 23 22 21 20 19 17 15 13 11 9 8 6 6 7 7 7 7 7 7 6 5 5 3 3 2 1 359 357 355 354 353 351 350 349 347 346 344 343 342 339 337 334 333 332 332 330 328 327 326 325 323 321 320 320 319 319 319 319 319 318 316 315
38 35 32 29 25 23 22 21 20 19 18 16 14 12 10 9 7 5 4 5 5 5 5 5 5 6 6 5 3 2 1 1 0 358 356 354 352 351 349 348 347 346 344 343 342 340 338 336 334 332 331 330 328 327 326 325 323 322 321 321 321 320 319 318 318 318 317 316 315
34 31 29 26 23 21 20 19 19 18 16 14 11 9 7 6 5 4 4 3 3 3 3 2 3 4 4 3 2 1 1 360 359 357 355 353 351 350 348 347 346 344 343 341 340 339 338 336 334 332 329 327 326 326 325 323 321 320 320 321 319 319 318 317 318 317 317 316 316
31 29 26 23 21 20 19 19 18 16 13 11 8 5 4 4 4 3 3 2 2 2 1 1 1 1 2 1 1 360 360 359 358 356 353 351 350 349 347 345 344 343 342 341 339 338 337 335 333 331 329 326 325 324 323 322 320 319 319 319 318 317 317 317 317 317 316 316 315
29 27 25 23 22 21 20 19 16 13 11 8 5 3 3 3 3 3 2 1 1 1 0 0 360 359 0 0 360 359 358 358 357 354 352 349 348 347 346 345 343 342 341 340 338 337 335 334 332 330 328 326 324 322 321 320 318 318 317 317 316 316 315 315 315 315 315 314 314
27 26 25 23 22 22 20 18 14 11 8 5 3 2 2 2 2 2 2 1 360 359 359 359 359 359 359 359 359 359 358 355 354 352 350 348 347 346 345 343 342 341 340 339 337 336 334 333 332 330 328 325 323 321 320 318 317 317 316 316 315 314 313 313 313 313 313 312 311
27 26 25 24 22 21 18 14 10 7 5 3 2 2 1 1 1 1 1 0 359 358 357 357 358 358 358 358 359 359 357 353 351 350 349 347 346 345 344 342 341 340 339 338 336 334 333 332 331 330 328 325 322 320 319 318 317 316 315 315 314 313 313 312 311 311 311 311 310
26 26 24 23 20 17 13 9 6 3 2 1 1 1 0 360 359 359 359 359 359 358 357 356 357 357 358 357 358 357 356 352 349 348 347 346 346 344 343 342 341 340 339 338 336 334 333 332 331 330 327 324 322 320 318 317 316 316 315 314 313 312 312 311 310 310 309 309 308
26 26 24 20 16 12 8 5 2 1 360 359 359 360 359 359 358 358 358 358 358 357 357 356 356 356 356 356 356 356 354 351 348 347 346 345 345 344 343 342 340 339 339 337 335 334 334 333 331 329 326 323 320 319 318 317 316 316 315 313 312 311 310 310 309 309 308 307 307
26 25 21 17 12 7 4 1 359 359 359 359 359 359 358 358 357 358 358 357 357 357 357 356 356 356 355 355 354 353 351 349 347 346 345 344 344 343 342 341 340 339 337 336 335 335 334 332 330 327 324 321 319 318 318 317 316 315 314 313 311 310 309 309 309 308 308 308 308
26 23 18 13 7 3 360 358 357 357 358 358 358 357 357 357 357 357 357 357 356 356 356 356 355 355 355 354 353 351 349 348 347 346 345 344 343 342 342 341 340 338 336 335 335 334 333 331 328 325 322 320 319 318 317 316 315 314 313 312 311 310 309 309 309 308 308 308 308
23 19 14 8 2 358 356 356 356 357 357 358 357 357 356 356 356 356 356 356 356 355 355 355 355 354 354 354 352 350 348 347 346 346 345 345 344 343 342 341 339 337 335 334 333 333 331 328 326 324 322 320 319 318 317 316 314 313 312 311 311 310 309 309 309 309 309 309 309
20 15 8 2 358 356 354 355 356 357 357 357 357 356 356 355 355 355 355 355 355 354 354 354 354 354 354 353 352 350 348 346 345 344 344 344 343 342 341 340 337 335 333 332 332 331 328 325 324 322 321 320 318 317 316 315 313 312 311 311 310 310 309 309 309 310 310 310 310
13 8 3 358 356 354 354 355 356 357 356 356 355 355 355 355 354 354 354 353 353 353 353 353 353 353 352 350 349 348 347 346 344 343 342 342 342 341 340 338 335 333 331 330 330 328 325 323 322 321 320 319 318 316 315 313 312 311 310 310 310 310 310 310 310 310 310 310 310
5 1 358 356 355 354 355 355 355 355 354 354 354 354 354 354 353 353 353 352 352 352 352 352 352 351 349 348 347 347 346 345 344 342 341 340 339 339 338 336 333 331 329 329 327 326 325 323 321 321 320 319 317 316 314 313 312 311 310 309 309 309 309 310 310 311 311 311 311
357 356 355 355 355 355 355 354 353 353 352 352 352 353 353 352 352 352 352 351 351 350 350 351 350 349 347 346 345 345 344 344 343 342 340 338 337 336 335 333 331 329 327 327 326 325 324 322 322 321 320 319 318 316 314 313 311 311 310 310 309 310 310 310 310 311 311 311 311
353 353 353 353 354 354 353 351 351 350 351 351 351 351 351 351 351 351 351 350 350 350 349 349 348 347 346 344 343 343 343 342 342 340 338 337 335 334 332 330 328 327 326 327 326 324 323 322 321 321 320 319 318 316 314 312 311 311 311 310 310 310 310 310 310 311 311 311 311
352 351 352 352 352 351 350 349 349 348 349 349 350 350 350 350 350 350 349 349 349 350 348 346 346 345 344 342 342 341 341 341 340 338 337 335 333 332 330 328 327 326 327 327 325 323 322 321 321 320 320 319 318 316 314 312 312 311 311 310 310 310 310 310 310 310 310 310 310
351 351 351 351 350 349 348 347 346 346 347 348 348 348 348 348 348 349 349 348 349 348 347 345 344 343 342 341 340 340 339 338 338 337 335 333 330 328 327 327 326 326 327 327 324 322 322 321 321 320 319 319 318 316 314 313 312 311 310 310 309 309 309 309 309 309 309 309 309
351 350 350 349 348 347 345 344 344 345 346 346 347 347 346 347 347 347 348 347 346 345 344 344 343 342 341 340 339 338 337 336 336 334 332 329 327 326 326 326 325 325 325 325 323 322 321 321 320 319 319 319 319 317 315 313 311 310 309 309 309 309 309 309 309 309 309 308 308
351 349 348 347 345 344 343 342 342 344 344 345 345 345 345 345 345 345 346 346 345 344 343 343 342 340 339 338 337 336 335 334 333 331 329 327 325 325 325 325 324 324 324 323 322 321 321 321 320 320 319 319 319 317 315 313 311 310 309 309 309 309 310 309 309 308 308 307 307
349 348 346 345 343 341 340 340 341 342 343 343 343 344 344 343 344 344 344 344 343 342 341 340 339 337 336 335 334 333 332 330 328 327 327 326 325 324 323 323 323 323 324 323 322 321 321 320 320 320 320 320 319 317 315 313 312 311 310 310 310 311 311 310 308 307 306 306 306
348 346 344 343 341 339 339 339 340 341 341 341 342 343 343 342 342 343 343 343 341 340 338 337 335 334 333 332 331 330 329 327 326 326 325 325 324 323 322 321 321 322 323 323 322 321 320 320 320 320 320 321 319 318 316 314 313 312 311 311 312 312 312 311 309 307 306 305 305
346 344 342 340 339 338 338 338 339 340 340 340 341 341 342 342 342 342 342 341 339 337 336 335 334 333 332 331 330 328 326 325 324 324 324 324 323 322 320 319 320 322 323 323 322 321 320 320 320 321 321 321 320 318 317 316 314 313 313 313 313 313 312 310 308 307 305 305 305
345 342 340 337 336 336 336 337 338 338 339 339 340 340 340 340 340 341 341 339 337 335 334 332 332 331 330 329 328 326 324 323 322 322 322 323 322 321 320 319 320 322 323 323 322 322 321 320 321 321 322 322 321 319 318 317 316 315 315 314 314 313 311 310 308 306 306 306 306
343 340 337 335 334 334 335 336 337 337 338 338 339 339 339 339 339 340 340 338 335 333 331 330 330 329 328 327 325 323 323 322 321 320 321 321 321 320 319 318 319 320 322 323 323 322 321 320 321 322 323 323 322 320 319 318 317 316 315 315 313 312 311 309 308 307 306 307 308
340 337 335 333 332 333 334 335 336 336 337 337 337 338 338 338 338 338 338 336 333 330 328 327 327 326 325 325 323 322 321 322 321 320 319 320 320 320 318 317 317 319 321 323 323 322 321 320 321 323 324 323 322 321 320 319 318 317 315 314 313 311 310 309 308 307 307 308 310
336 335 333 332 331 332 333 334 335 335 336 336 336 337 338 338 337 336 335 333 331 328 326 325 324 323 323 323 321 320 320 321 321 320 319 319 319 319 318 316 316 318 320 323 323 322 321 320 321 323 324 323 323 322 320 319 317 316 315 313 312 311 310 309 308 307 307 309 314
334 332 332 331 331 332 332 333 334 335 335 336 336 336 336 336 335 334 333 331 330 328 325 323 322 322 322 322 320 318 319 320 320 321 320 319 319 319 318 316 315 317 319 322 323 322 320 320 322 324 325 324 324 322 321 319 317 315 314 313 312 311 310 309 308 308 310 313 316
331 331 331 332 332 332 333 333 334 335 336 336 336 336 335 335 333 333 332 331 329 327 324 322 320 320 321 320 318 318 318 319 320 320 320 320 319 319 317 316 316 316 318 321 322 321 320 322 323 324 325 325 324 323 321 318 316 314 313 312 311 310 309 308 309 312 315 318 318
Height
792 792 792 791 791 791 790 790 790 790 789 789 789 789 789 788 788 788 787 787 786 786 785 784 784 783 782 781 780 779 779 778 777 776 776 775 774 773 772 771 770 769 768 767 766 765 764 763 762 761 760 759 758 758 757 756 754 753 752 751 750 748 747 746 745 743 742 741 740
792 792 792 791 791 791 790 790 790 790 789 789 789 789 788 788 788 788 787 787 787 786 785 785 784 783 782 781 780 779 778 777 777 776 775 774 774 773 772 771 770 769 768 767 766 765 764 762 761 760 760 759 758 757 756 755 754 753 751 750 749 748 746 745 744 743 741 740 739
792 792 792 792 791 791 790 790 790 789 789 789 789 788 788 788 787 787 787 787 787 786 785 784 784 783 782 781 780 779 778 777 777 776 775 774 773 772 771 770 769 768 767 766 765 764 763 762 761 760 759 758 757 756 755 754 753 752 751 749 748 747 746 744 743 742 740 739 738
792 792 792 792 791 791 791 790 790 789 789 789 788 788 788 787 787 787 787 787 786 786 785 784 783 782 782 781 780 779 778 777 776 775 774 773 772 772 771 770 769 768 767 766 765 764 763 762 761 760 759 758 757 756 755 753 752 751 750 749 748 746 745 744 742 741 740 738 737
792 792 792 792 791 791 791 790 790 789 789 789 788 788 787 787 787 787 787 786 786 785 785 784 783 782 782 781 780 779 778 777 776 775 774 773 772 771 770 769 768 767 766 765 764 763 762 761 760 759 758 757 756 755 754 753 752 750 749 748 747 745 744 743 742 740 739 738 736
793 792 792 792 792 791 791 791 790 790 789 789 788 788 787 787 787 787 786 786 786 785 784 784 783 782 782 781 779 778 777 776 775 774 773 772 772 771 770 769 768 767 766 765 764 762 762 760 759 759 758 757 755 754 753 752 751 749 748 747 746 744 743 742 741 739 738 736 735
793 793 792 792 792 791 791 790 790 789 789 788 788 787 787 787 787 787 786 786 785 785 784 783 783 782 781 780 779 778 777 776 775 774 773 772 771 770 769 768 767 766 765 764 763 762 761 760 759 758 757 756 755 753 752 751 750 748 747 746 744 743 742 741 739 738 737 735 734
793 793 792 792 792 791 791 790 790 789 788 788 787 787 787 787 787 787 786 786 785 784 784 783 782 782 781 780 779 777 777 775 774 773 772 772 771 770 769 768 767 766 765 763 762 761 760 759 758 758 756 755 754 752 751 750 748 747 746 744 743 742 741 740 738 737 735 734 732
793 793 792 792 792 791 791 790 790 789 788 788 787 787 787 787 787 786 786 785 785 784 783 783 782 781 781 779 778 777 776 775 774 773 772 771 770 769 768 767 766 765 764 763 762 761 759 758 758 757 756 754 753 751 750 748 747 746 745 743 742 740 739 738 737 735 734 733 731
793 793 792 792 792 791 791 790 790 789 788 788 787 787 787 787 786 786 786 785 785 784 783 782 782 781 780 779 778 777 776 775 774 773 772 771 770 769 768 767 765 764 763 762 761 760 759 758 757 756 754 753 752 750 748 747 746 744 743 742 740 739 738 737 736 734 733 731 729
793 793 792 792 792 791 791 790 790 789 788 788 787 787 787 786 786 786 786 785 784 783 783 782 781 780 779 778 777 777 776 774 773 772 771 770 769 768 767 766 765 764 762 761 760 759 758 757 756 754 753 752 750 749 747 746 745 743 742 740 739 738 736 735 734 733 731 729 728
793 792 792 792 792 791 791 790 789 789 788 787 787 787 786 786 786 786 785 784 784 783 782 782 781 780 779 778 777 776 775 774 773 772 771 770 769 767 767 765 764 763 762 761 759 758 757 756 754 753 751 750 749 748 746 744 743 742 740 739 738 736 735 733 732 731 729 728 726
792 792 792 792 791 791 790 790 789 789 788 787 787 787 786 786 786 785 785 784 783 782 782 781 780 779 778 777 776 775 774 773 772 771 770 769 768 767 766 764 763 762 761 760 758 758 756 755 753 752 750 748 748 746 745 743 742 741 739 738 736 735 733 732 730 729 728 726 725
792 792 792 791 791 791 790 789 789 788 788 787 787 787 786 786 785 785 784 783 782 782 781 780 779 779 778 777 776 775 774 772 772 770 769 768 767 766 765 764 762 761 760 759 758 756 755 753 752 751 749 748 746 745 743 742 741 739 738 737 735 733 732 730 729 728 726 724 723
792 792 791 791 790 790 790 789 789 788 788 787 787 787 786 786 785 784 783 783 782 781 780 779 779 778 777 776 775 774 773 772 771 769 768 767 767 765 764 763 762 760 759 758 756 755 754 753 751 749 748 746 745 743 742 741 739 738 737 735 734 732 730 729 727 726 724 723 721
792 792 791 791 790 790 789 789 788 788 788 787 787 786 786 785 785 784 783 782 781 781 780 779 778 777 776 775 774 773 772 771 770 769 768 767 766 764 763 762 761 759 758 756 755 754 753 752 750 748 747 745 743 742 741 739 738 737 735 734 733 731 729 728 726 724 723 721 720
792 791 791 790 790 789 789 788 788 788 787 787 787 786 785 785 784 783 782 782 781 780 779 778 777 776 775 774 773 772 771 770 769 768 767 766 765 763 762 761 760 758 757 755 754 753 751 750 749 747 746 744 743 741 739 738 737 735 734 732 731 729 728 726 724 723 721 720 718
792 791 791 790 790 789 789 788 788 788 787 787 786 786 785 784 783 783 782 781 780 779 778 777 777 776 775 773 772 772 771 769 768 767 766 765 764 762 761 760 758 757 756 754 753 752 750 748 747 746 744 743 741 740 738 737 735 733 732 730 729 728 726 724 723 722 720 718 717
792 791 791 790 789 789 788 788 788 787 787 787 786 785 784 784 783 782 781 781 780 779 778 777 776 775 774 773 772 771 770 769 768 767 766 764 763 762 760 759 757 756 755 753 752 750 749 747 746 744 743 741 740 738 737 735 734 732 730 729 727 726 724 723 721 720 719 717 715
791 791 790 790 789 789 788 788 788 787 787 786 785 785 784 783 782 782 781 780 779 778 777 776 775 774 773 772 771 770 769 768 767 766 764 763 762 761 759 758 756 755 753 752 751 749 748 746 744 743 741 740 738 737 735 733 732 730 729 727 726 724 722 721 719 718 717 716 714
791 790 790 789 789 788 788 788 787 787 786 786 785 784 783 782 782 781 780 779 778 777 776 775 774 773 772 771 770 769 768 767 766 765 763 762 761 760 758 757 755 754 752 751 749 748 747 745 743 742 740 739 737 735 734 732 730 728 727 725 724 722 721 719 718 717 715 714 713
791 790 789 789 789 788 788 788 787 787 786 785 784 783 782 782 781 780 779 778 777 776 775 774 773 772 771 770 769 768 767 766 765 764 762 761 760 758 757 756 754 753 751 750 748 747 745 744 743 741 739 738 736 734 732 731 729 727 725 723 722 720 719 718 716 715 713 712 711
790 790 789 789 788 788 788 787 787 786 785 784 783 783 782 781 780 779 778 777 777 775 774 773 772 771 770 769 768 767 766 765 763 762 762 760 759 758 756 755 753 752 750 749 748 746 744 743 741 740 738 737 734 733 731 729 727 725 723 722 720 718 717 716 715 713 712 711 709
790 789 789 788 788 787 787 787 786 785 784 783 783 782 781 780 779 778 777 777 775 774 773 772 771 770 769 768 767 766 765 763 762 761 760 759 758 757 755 753 753 751 750 748 747 746 744 743 741 739 737 735 733 732 730 728 726 724 722 720 718 717 715 714 713 712 710 709 708
789 789 788 788 787 787 786 786 785 784 783 783 782 781 780 779 778 777 776 775 774 773 772 771 770 769 768 767 766 765 764 763 761 760 758 757 756 755 754 753 752 750 748 747 746 745 744 743 741 739 737 734 733 730 728 727 725 723 721 719 718 716 714 712 711 710 709 707 706
789 788 788 787 787 786 786 785 784 783 783 782 781 780 779 778 777 776 775 774 773 772 771 770 769 768 767 766 765 764 763 762 760 759 758 756 755 753 753 752 751 749 747 746 745 743 742 741 740 738 736 734 732 729 727 725 723 722 720 718 717 715 713 711 709 708 707 706 704
788 788 787 787 786 785 785 784 783 783 782 781 780 779 778 777 777 775 774 773 772 771 770 769 768 767 766 765 764 763 762 761 759 758 757 755 754 753 751 750 749 748 746 745 743 742 740 739 738 737 735 733 731 729 727 724 722 720 719 717 715 713 712 710 708 707 705 703 702
788 787 787 786 785 785 784 783 782 782 781 780 779 778 777 777 775 774 773 772 771 770 769 768 767 766 765 764 763 762 761 759 758 757 756 754 753 752 751 749 748 747 745 743 742 740 739 738 736 735 733 732 730 728 725 723 721 719 717 716 714 713 711 709 708 706 704 702 700
787 787 786 785 784 784 783 782 782 781 780 779 778 777 777 776 774 773 772 771 770 769 768 767 766 765 764 763 762 761 760 758 757 756 754 753 752 751 749 748 747 745 743 742 740 739 738 736 735 733 732 731 729 727 724 722 720 718 716 714 713 711 710 708 706 705 703 701 699
786 786 785 784 783 783 782 782 781 780 779 778 777 777 776 774 773 772 772 770 769 768 768 767 766 764 763 762 761 760 758 757 756 755 753 752 751 749 748 747 745 743 742 740 739 738 736 735 733 732 730 729 727 725 723 721 719 717 715 713 712 710 709 707 705 703 702 699 698
785 785 784 783 783 782 782 781 780 779 778 777 777 776 775 774 772 772 771 770 769 768 767 766 765 763 762 761 760 759 758 756 755 754 753 751 750 748 746 745 743 742 740 739 738 737 735 733 732 730 729 727 726 724 722 720 718 716 714 712 710 709 707 706 704 702 700 698 696
784 784 783 782 782 782 781 780 779 778 777 777 776 775 774 773 772 771 770 769 768 767 765 764 763 762 761 760 759 758 757 755 754 753 751 750 748 747 745 743 742 740 739 738 737 735 734 732 731 729 727 726 724 722 720 718 716 714 713 711 709 708 706 704 703 701 699 697 695
783 783 782 782 781 781 780 779 778 777 777 776 775 774 773 772 771 770 769 768 767 766 765 764 762 761 760 759 758 756 755 754 753 752 750 748 747 745 744 742 741 739 738 737 736 734 733 731 729 728 726 724 722 720 718 717 715 713 711 709 708 706 704 703 701 699 697 695 693
782 782 782 781 781 780 779 778 778 777 776 775 774 773 772 771 770 769 768 767 766 765 764 763 762 761 760 758 757 756 754 753 752 751 749 747 745 744 743 741 740 738 737 735 734 733 731 729 728 726 724 723 721 719 717 715 713 711 709 708 706 704 703 701 699 698 696 694 692
782 781 781 781 780 779 778 778 777 776 775 774 773 772 771 770 769 768 767 766 765 764 763 762 761 760 758 758 756 755 753 752 750 749 748 746 744 743 741 740 738 737 736 734 733 732 730 728 726 725 723 721 719 717 715 713 711 709 708 706 704 703 701 699 698 696 694 692 690
781 781 780 780 779 778 778 777 776 775 774 773 772 771 770 769 768 767 766 765 764 763 762 761 759 758 757 756 755 754 753 751 749 748 746 745 743 742 740 738 737 735 734 733 732 730 728 727 725 723 722 720 718 716 714 712 710 708 706 704 703 701 699 697 695 694 692 690 689
781 781 780 779 778 778 777 776 775 774 773 772 771 770 769 768 767 766 765 764 763 762 760 759 758 757 756 755 753 753 751 750 748 746 745 744 743 741 739 737 735 734 733 732 730 729 727 726 724 722 721 718 717 714 713 711 708 707 705 703 701 699 697 695 693 692 690 689 688
781 780 779 778 778 777 776 775 774 773 772 771 770 769 768 767 766 765 764 763 762 761 759 758 757 756 755 753 752 751 750 748 747 745 744 742 741 740 738 736 734 733 732 730 729 727 726 724 723 721 720 718 716 713 711 709 708 706 704 702 699 697 695 693 692 690 688 687 686
780 779 779 778 777 776 775 774 773 772 772 770 769 768 767 766 765 764 763 762 762 760 759 757 756 755 754 752 751 749 748 747 746 744 743 741 740 739 737 735 733 732 730 729 728 726 724 723 722 720 718 717 715 713 711 708 707 704 703 700 698 695 693 692 690 688 687 685 684
779 778 778 777 776 775 774 773 772 772 771 769 768 767 766 765 764 763 762 762 761 759 758 757 755 754 753 751 750 748 746 745 744 743 742 740 738 738 736 734 732 730 729 728 726 725 723 722 721 719 718 716 714 712 710 708 706 703 701 699 696 694 691 689 688 687 685 684 683
778 777 777 776 775 774 773 772 772 771 770 769 767 767 766 764 763 762 761 760 759 758 757 756 754 753 752 750 748 747 745 743 742 741 740 738 737 736 735 733 731 729 728 726 725 723 722 721 719 718 717 715 713 711 709 707 705 702 700 697 695 693 690 688 686 685 684 682 680